Tracking 35275 objects as of 9-Sep-2026
HD Live streaming from Space Station
objects crossing your sky now

SPACEBEE-108


SPACEBEE-108 is no longer on orbit


NORAD ID: 48895
Int'l Code: 2021-059S
Launch date: June 30, 2021
Source: United States (US)
Launch site: AIR FORCE EASTERN TEST RANGE (AFETR)
Decay date: 2024-03-30
Your satellite tracking list
Your tracking list is empty




NASA's NSSDC Master Catalog

Two Line Element Set (TLE):
1 48895U 21059S   24082.94850073  .03489248  25265-5  23458-2 0  9990
2 48895  97.5909 240.3473 0011765 295.1793  64.8273 16.16696205152723
Source of the keplerian elements: AFSPC